Location: Sweet Grass
(48.9965°N, 111.9649°W)
Time: 06:34:04
(UTC+00:00)

EO-79 - Pass Details

Date: 05 April 2023
Orbit: 578 x 593 km, 98.0° (Epoch: 03 June)

Event Time Altitude Azimuth Distance (km) Brightness Sun altitude
Rises 11:08:25 0° 360° (N) 2,829 ? -17.4°
Reaches altitude 10° 11:11:14 10° 339° (NNW) 1,919 ? -17.0°
Maximum altitude 11:13:50 16° 300° (WNW) 1,535 ? -16.7°
Enters shadow 11:14:11 16° 294° (WNW) 1,542 ? -16.6°
